Location: Newark
(23.1300°N, 73.6109°E)
Time: 13:25:30
(UTC+00:00)

Envisat - Pass Details

Date: 26 July 2021
Orbit: 764 x 766 km, 98.2° (Epoch: 17 September)

Event Time Altitude Azimuth Distance (km) Brightness Sun altitude
Rises 23:34:54 0° 26° (NNE) 3,228 7.2 -13.2°
Reaches altitude 10° 23:37:26 10° 36° (NE) 2,300 6.5 -12.7°
Maximum altitude 23:41:56 32° 99° (E) 1,282 4.8 -11.8°
Drops below altitude 10° 23:46:26 10° 162° (SSE) 2,291 5.4 -10.8°
Sets 23:48:56 0° 172° (S) 3,214 6.0 -10.3°
